DW8313 Weather Reports


Display with metric or nautical units.
time (UTC)temp
F
wind
direction
speed
MPH
gust
MPH
rain 1hr
in
rain 24hr
in
rain mn
in
humidity
%
barometer
mb
20260504193603 54 290 2.0 6.0 0.00 0.00 0.00 61 1014.6
20260504193404 54 291 2.0 6.0 0.00 0.00 0.00 60 1014.6
20260504193203 54 292 2.0 6.0 0.00 0.00 0.00 60 1014.5
20260504193003 54 293 2.0 6.0 0.00 0.00 0.00 60 1014.5
20260504192803 54 286 2.0 7.0 0.00 0.00 0.00 60 1014.5
20260504192604 54 286 2.0 7.0 0.00 0.00 0.00 61 1014.5
20260504192424 54 280 2.0 7.0 0.00 0.00 0.00 59 1014.5
20260504192204 54 275 2.0 7.0 0.00 0.00 0.00 60 1014.6
20260504192003 54 271 2.0 10.0 0.00 0.00 0.00 62 1014.7
20260504191803 54 276 2.0 10.0 0.00 0.00 0.00 62 1014.8
20260504191604 53 264 2.0 10.0 0.00 0.00 0.00 62 1014.8
20260504191403 53 264 2.0 10.0 0.00 0.00 0.00 60 1014.7
20260504191204 54 269 2.0 10.0 0.00 0.00 0.00 61 1014.7
20260504191003 54 272 2.0 9.0 0.00 0.00 0.00 61 1014.6
20260504190825 54 272 2.0 6.0 0.00 0.00 0.00 61 1014.6
20260504190603 53 287 1.0 6.0 0.00 0.00 0.00 62 1014.6
20260504190404 53 287 1.0 6.0 0.00 0.00 0.00 61 1014.5
20260504190204 53 296 1.0 6.0 0.00 0.00 0.00 63 1014.5
20260504190003 53 310 1.0 6.0 0.00 0.00 0.00 62 1014.5
20260504185803 53 303 2.0 10.0 0.00 0.00 0.00 63 1014.5
20260504185625 53 302 2.0 10.0 0.00 0.00 0.00 63 1014.5
20260504185424 53 299 3.0 10.0 0.00 0.00 0.00 62 1014.4
20260504185225 53 298 4.0 10.0 0.00 0.00 0.00 62 1014.4
20260504185003 53 298 4.0 10.0 0.00 0.00 0.00 61 1014.5
20260504184804 54 295 3.0 9.0 0.00 0.00 0.00 62 1014.4
20260504184603 54 293 2.0 9.0 0.00 0.00 0.00 62 1014.4
20260504184403 54 290 1.0 6.0 0.00 0.00 0.00 62 1014.4
20260504184203 54 284 1.0 6.0 0.00 0.00 0.00 62 1014.4
20260504184003 54 267 1.0 6.0 0.00 0.00 0.00 60 1014.4
20260504183803 54 289 1.0 5.0 0.00 0.00 0.00 60 1014.4
20260504183604 54 290 1.0 4.0 0.00 0.00 0.00 60 1014.6
20260504183403 54 307 2.0 6.0 0.00 0.00 0.00 60 1014.6
20260504183204 54 315 2.0 6.0 0.00 0.00 0.00 60 1014.6
20260504183003 54 311 2.0 6.0 0.00 0.00 0.00 60 1014.6
20260504182803 55 308 2.0 6.0 0.00 0.00 0.00 61 1014.6
20260504182604 55 309 1.0 6.0 0.00 0.00 0.00 60 1014.6
20260504182424 55 301 2.0 7.0 0.00 0.00 0.00 62 1014.5
20260504182204 54 290 2.0 7.0 0.00 0.00 0.00 61 1014.5
20260504182004 54 294 2.0 7.0 0.00 0.00 0.00 61 1014.6
20260504181804 54 295 2.0 7.0 0.00 0.00 0.00 62 1014.6
20260504181624 54 296 2.0 7.0 0.00 0.00 0.00 62 1014.5
20260504181404 54 299 1.0 6.0 0.00 0.00 0.00 63 1014.5
20260504181203 54 293 1.0 6.0 0.00 0.00 0.00 65 1014.5
20260504181003 53 298 1.0 4.0 0.00 0.00 0.00 63 1014.5
20260504180803 53 297 1.0 4.0 0.00 0.00 0.00 63 1014.5
20260504180624 53 297 1.0 4.0 0.00 0.00 0.00 63 1014.4
20260504180403 53 293 1.0 4.0 0.00 0.00 0.00 63 1014.5
20260504180204 53 282 0.0 2.0 0.00 0.00 0.00 64 1014.5
20260504180003 53 296 0.0 2.0 0.00 0.00 0.00 65 1014.5
20260504175803 53 0 0.0 0.0 0.00 0.00 0.00 66 1014.5
20260504175604 53 335 0.0 1.0 0.00 0.00 0.00 65 1014.5
20260504175403 53 219 0.0 4.0 0.00 0.00 0.00 66 1014.4
20260504175224 53 236 0.0 5.0 0.00 0.00 0.00 66 1014.4
20260504175003 53 236 0.0 5.0 0.00 0.00 0.00 68 1014.5
20260504174825 52 237 1.0 5.0 0.00 0.00 0.00 69 1014.4
20260504174603 52 253 1.0 7.0 0.00 0.00 0.00 69 1014.3
20260504174403 52 270 2.0 7.0 0.00 0.00 0.00 70 1014.3
20260504174203 51 281 2.0 7.0 0.00 0.00 0.00 72 1014.3
20260504174004 51 287 2.0 7.0 0.00 0.00 0.00 71 1014.2
20260504173803 51 290 2.0 7.0 0.00 0.00 0.00 71 1014.2
20260504173603 51 297 2.0 7.0 0.00 0.00 0.00 71 1014.2
20260504173404 51 296 1.0 7.0 0.00 0.00 0.00 71 1014.2
20260504173205 51 303 1.0 7.0 0.00 0.00 0.00 70 1014.2
20260504173003 51 287 0.0 3.0 0.00 0.00 0.00 70 1014.1
20260504172803 51 292 0.0 4.0 0.00 0.00 0.00 70 1014.1
20260504172603 51 295 1.0 5.0 0.00 0.00 0.00 71 1014.2
20260504172403 51 294 1.0 5.0 0.00 0.00 0.00 70 1014.2
20260504172226 51 292 1.0 5.0 0.00 0.00 0.00 70 1014.2
20260504172003 51 292 1.0 5.0 0.00 0.00 0.00 70 1014.2
20260504171804 51 292 1.0 5.0 0.00 0.00 0.00 70 1014.2
20260504171603 51 254 1.0 5.0 0.00 0.00 0.00 70 1014.2
20260504171405 52 222 1.0 5.0 0.00 0.00 0.00 69 1014.0
20260504171203 52 124 0.0 4.0 0.00 0.00 0.00 69 1013.9
20260504171004 51 124 0.0 4.0 0.00 0.00 0.00 68 1013.9
20260504170804 51 131 0.0 4.0 0.00 0.00 0.00 69 1014.0
20260504170624 51 124 0.0 4.0 0.00 0.00 0.00 69 1014.0
20260504170424 51 109 0.0 3.0 0.00 0.00 0.00 70 1014.0
20260504170203 51 114 0.0 3.0 0.00 0.00 0.00 71 1013.9
20260504160403 49 273 1.0 3.0 0.00 0.00 0.00 78 1013.6
20260504160203 48 270 1.0 3.0 0.00 0.00 0.00 78 1013.6
20260504151024 48 0 0.0 0.0 0.00 0.00 0.00 82 1013.5
20260504150803 48 0 0.0 0.0 0.00 0.00 0.00 82 1013.5
20260504150603 48 0 0.0 0.0 0.00 0.00 0.00 83 1013.5
20260504150424 48 0 0.0 0.0 0.00 0.00 0.00 83 1013.4
20260504150203 48 0 0.0 0.0 0.00 0.00 0.00 85 1013.4
20260504141203 47 0 0.0 0.0 0.00 0.00 0.00 89 1013.2
20260504141024 47 0 0.0 0.0 0.00 0.00 0.00 89 1013.2
20260504140803 47 0 0.0 0.0 0.00 0.00 0.00 90 1013.3
20260504140603 47 0 0.0 0.0 0.00 0.00 0.00 90 1013.3
20260504140403 47 0 0.0 0.0 0.00 0.00 0.00 90 1013.2
20260504140203 47 0 0.0 0.0 0.00 0.00 0.00 90 1013.2
20260504130803 46 296 1.0 4.0 0.00 0.00 0.00 87 1013.1
20260504130603 46 290 1.0 5.0 0.00 0.00 0.00 87 1013.0
20260504130403 46 287 1.0 5.0 0.00 0.00 0.00 87 1012.9
20260504130204 46 291 1.0 5.0 0.00 0.00 0.00 87 1013.0
20260504120203 46 294 1.0 4.0 0.00 0.00 0.00 90 1012.7
20260504110603 47 285 2.0 6.0 0.00 0.00 0.00 91 1012.2
20260504110403 47 286 1.0 6.0 0.00 0.00 0.00 91 1012.1
20260504110203 47 288 1.0 5.0 0.00 0.00 0.00 92 1012.1
20260504100403 47 314 0.0 3.0 0.00 0.00 0.00 91 1012.1
20260504100204 47 313 0.0 3.0 0.00 0.00 0.00 91 1012.0
20260504082003 48 0 0.0 0.0 0.00 0.00 0.00 88 1013.4
20260504081804 48 0 0.0 0.0 0.00 0.00 0.00 88 1013.6
20260504081603 48 0 0.0 0.0 0.00 0.00 0.00 88 1013.4
20260504081403 48 0 0.0 0.0 0.00 0.00 0.00 88 1013.3
20260504081203 48 0 0.0 0.0 0.00 0.00 0.00 88 1013.3
20260504081003 48 0 0.0 0.0 0.00 0.00 0.00 88 1013.3
20260504080803 48 283 0.0 4.0 0.00 0.00 0.00 88 1013.3
20260504080603 48 286 0.0 4.0 0.00 0.00 0.00 88 1013.2
20260504080424 48 287 1.0 4.0 0.00 0.00 0.00 88 1013.4
20260504080224 48 284 1.0 5.0 0.00 0.00 0.00 88 1013.8
20260504070403 49 335 0.0 2.0 0.00 0.00 0.00 84 1012.7
20260504070203 49 324 0.0 2.0 0.00 0.00 0.00 84 1012.8
20260504060203 50 0 0.0 0.0 0.00 0.00 0.00 80 1011.9
20260504050603 51 223 0.0 2.0 0.00 0.00 0.00 82 1012.3
20260504050424 51 223 0.0 2.0 0.00 0.00 0.00 82 1012.3
20260504050203 51 0 0.0 0.0 0.00 0.00 0.00 82 1012.4
20260504050003 51 305 0.0 4.0 0.00 0.00 0.00 82 1012.5
20260504045803 51 303 0.0 4.0 0.00 0.00 0.00 82 1012.6
20260504045603 51 303 0.0 4.0 0.00 0.00 0.00 82 1012.5
20260504045403 51 303 0.0 4.0 0.00 0.00 0.00 81 1012.4
20260504045224 51 303 0.0 4.0 0.00 0.00 0.00 81 1012.5
20260504045003 51 296 0.0 2.0 0.00 0.00 0.00 81 1012.4
20260504044803 51 277 0.0 1.0 0.00 0.00 0.00 81 1012.4
20260504044624 51 0 0.0 0.0 0.00 0.00 0.00 81 1012.5
20260504044403 51 0 0.0 0.0 0.00 0.00 0.00 81 1012.5
20260504044203 51 0 0.0 0.0 0.00 0.00 0.00 81 1012.4
20260504044003 51 0 0.0 0.0 0.00 0.00 0.00 81 1012.4
20260504043804 51 0 0.0 0.0 0.00 0.00 0.00 80 1012.4
20260504043603 51 0 0.0 0.0 0.00 0.00 0.00 80 1012.3
20260504043404 51 0 0.0 0.0 0.00 0.00 0.00 80 1012.3
20260504043204 51 0 0.0 0.0 0.00 0.00 0.00 80 1012.3
20260504043024 51 0 0.0 0.0 0.00 0.00 0.00 81 1012.3
20260504042825 51 0 0.0 0.0 0.00 0.00 0.00 80 1012.2
20260504042603 51 0 0.0 0.0 0.00 0.00 0.00 80 1012.2
20260504042404 51 0 0.0 0.0 0.00 0.00 0.00 80 1012.2
20260504042203 51 315 0.0 2.0 0.00 0.00 0.00 80 1012.2
20260504042003 52 297 0.0 2.0 0.00 0.00 0.00 80 1012.2
20260504041803 52 297 0.0 2.0 0.00 0.00 0.00 80 1012.2
20260504041603 52 286 0.0 3.0 0.00 0.00 0.00 80 1012.1
20260504041404 52 284 1.0 3.0 0.00 0.00 0.00 80 1012.1
20260504041203 52 278 0.0 3.0 0.00 0.00 0.00 80 1012.1
20260504041024 52 278 0.0 3.0 0.00 0.00 0.00 80 1012.1
20260504040803 52 278 0.0 3.0 0.00 0.00 0.00 79 1012.2
20260504040603 52 278 0.0 3.0 0.00 0.00 0.00 79 1012.2
20260504040404 52 0 0.0 0.0 0.00 0.00 0.00 80 1012.1
20260504040204 52 320 0.0 3.0 0.00 0.00 0.00 80 1012.1
20260504040003 52 306 0.0 3.0 0.00 0.00 0.00 80 1011.9
20260504035803 52 305 0.0 3.0 0.00 0.00 0.00 79 1011.9
20260504035603 52 304 0.0 3.0 0.00 0.00 0.00 79 1011.9
20260504035424 52 300 1.0 3.0 0.00 0.00 0.00 79 1012.0
20260504035203 52 291 1.0 4.0 0.00 0.00 0.00 79 1012.0
20260504035003 52 293 1.0 4.0 0.00 0.00 0.00 79 1012.0
20260504034824 52 296 1.0 4.0 0.00 0.00 0.00 79 1011.9
20260504034603 52 296 1.0 4.0 0.00 0.00 0.00 79 1011.9
20260504034403 52 298 1.0 4.0 0.00 0.00 0.00 79 1011.8
20260504034225 52 302 1.0 4.0 0.00 0.00 0.00 78 1011.9
20260504034003 52 312 0.0 4.0 0.00 0.00 0.00 78 1011.9
20260504033803 52 293 0.0 3.0 0.00 0.00 0.00 79 1011.9
20260504033624 52 294 0.0 3.0 0.00 0.00 0.00 79 1011.8
20260504033424 52 296 0.0 3.0 0.00 0.00 0.00 78 1011.8
20260504033203 52 296 0.0 3.0 0.00 0.00 0.00 78 1011.8
20260504033003 52 304 1.0 3.0 0.00 0.00 0.00 78 1011.8
20260504032804 52 295 1.0 5.0 0.00 0.00 0.00 78 1011.8
20260504032625 52 302 1.0 5.0 0.00 0.00 0.00 78 1011.8
20260504032403 52 301 2.0 6.0 0.00 0.00 0.00 78 1011.7
20260504032204 52 295 2.0 6.0 0.00 0.00 0.00 78 1011.5
20260504032003 53 292 3.0 6.0 0.00 0.00 0.00 78 1011.6
20260504031803 53 293 3.0 6.0 0.00 0.00 0.00 78 1011.7
20260504031603 53 292 3.0 6.0 0.00 0.00 0.00 78 1011.7
20260504031425 53 292 2.0 6.0 0.00 0.00 0.00 77 1011.5
20260504031203 53 294 2.0 5.0 0.00 0.00 0.00 77 1011.5
20260504031003 53 295 2.0 5.0 0.00 0.00 0.00 77 1011.4
20260504030803 53 296 2.0 5.0 0.00 0.00 0.00 77 1011.4
20260504030603 53 293 2.0 5.0 0.00 0.00 0.00 77 1011.5
20260504030403 53 291 2.0 5.0 0.00 0.00 0.00 77 1011.5
20260504030224 53 292 2.0 5.0 0.00 0.00 0.00 77 1011.5
20260504030024 53 292 2.0 5.0 0.00 0.00 0.00 77 1011.4
20260504025803 53 291 2.0 5.0 0.00 0.00 0.00 77 1011.4
20260504025604 53 291 2.0 5.0 0.00 0.00 0.00 77 1011.4
20260504025403 53 292 2.0 5.0 0.00 0.00 0.00 77 1011.4
20260504025203 53 288 2.0 6.0 0.00 0.00 0.00 76 1011.3
20260504025003 53 289 1.0 6.0 0.00 0.00 0.00 76 1011.2
20260504024803 54 295 2.0 6.0 0.00 0.00 0.00 77 1011.1
20260504024603 54 294 2.0 6.0 0.00 0.00 0.00 76 1011.1
20260504024403 54 290 2.0 6.0 0.00 0.00 0.00 76 1011.1
20260504024224 54 291 2.0 6.0 0.00 0.00 0.00 76 1011.1
20260504024003 54 288 2.0 6.0 0.00 0.00 0.00 76 1011.0
20260504023803 54 283 2.0 6.0 0.00 0.00 0.00 76 1011.0
20260504023624 54 287 2.0 6.0 0.00 0.00 0.00 75 1010.9
20260504023424 54 291 2.0 6.0 0.00 0.00 0.00 75 1010.8
20260504023203 54 294 3.0 7.0 0.00 0.00 0.00 75 1010.8
20260504023003 54 293 4.0 8.0 0.00 0.00 0.00 75 1010.7
20260504022803 55 292 3.0 8.0 0.00 0.00 0.00 75 1010.7
20260504022603 55 289 3.0 8.0 0.00 0.00 0.00 75 1010.5
20260504022403 55 289 3.0 8.0 0.00 0.00 0.00 74 1010.5
20260504022203 55 289 3.0 8.0 0.00 0.00 0.00 74 1010.5
20260504022004 55 290 2.0 6.0 0.00 0.00 0.00 75 1010.4
20260504021803 55 293 2.0 6.0 0.00 0.00 0.00 75 1010.2
20260504021603 56 295 3.0 8.0 0.00 0.00 0.00 75 1010.1
20260504021403 56 294 3.0 8.0 0.00 0.00 0.00 75 1010.2
20260504021203 56 293 2.0 8.0 0.00 0.00 0.00 74 1010.3
20260504021024 56 297 2.0 8.0 0.00 0.00 0.00 74 1010.3
20260504020803 56 296 2.0 8.0 0.00 0.00 0.00 74 1010.2
20260504020603 56 298 1.0 4.0 0.00 0.00 0.00 75 1010.2
20260504020403 56 294 1.0 4.0 0.00 0.00 0.00 75 1010.1
20260504020203 56 296 2.0 5.0 0.00 0.00 0.00 75 1010.1
20260504020003 56 296 2.0 5.0 0.00 0.00 0.00 75 1010.0
20260504015824 56 294 2.0 5.0 0.00 0.00 0.00 75 1009.8
20260504015603 56 295 3.0 6.0 0.00 0.00 0.00 75 1009.8
20260504015403 56 295 2.0 6.0 0.00 0.00 0.00 74 1009.7
20260504015203 56 293 3.0 8.0 0.00 0.00 0.00 75 1009.7
20260504015003 57 292 3.0 8.0 0.00 0.00 0.00 74 1009.8
20260504014803 57 293 3.0 8.0 0.00 0.00 0.00 74 1009.9
20260504014603 57 291 3.0 8.0 0.00 0.00 0.00 75 1009.9
20260504014403 57 294 3.0 8.0 0.00 0.00 0.00 74 1009.9
20260504014224 57 294 3.0 8.0 0.00 0.00 0.00 74 1009.9
20260504014003 57 295 3.0 8.0 0.00 0.00 0.00 74 1009.8
20260504013824 57 291 3.0 8.0 0.00 0.00 0.00 74 1009.7
20260504013603 58 291 3.0 8.0 0.00 0.00 0.00 73 1009.7
20260504013403 58 287 2.0 7.0 0.00 0.00 0.00 73 1009.8
20260504013203 58 285 2.0 5.0 0.00 0.00 0.00 73 1009.9
20260504013024 58 287 2.0 7.0 0.00 0.00 0.00 73 1009.9
20260504012803 58 288 2.0 7.0 0.00 0.00 0.00 73 1009.9
20260504012603 59 288 2.0 7.0 0.00 0.00 0.00 73 1009.9
20260504012403 59 287 2.0 7.0 0.00 0.00 0.00 72 1009.8
20260504012224 59 289 2.0 7.0 0.00 0.00 0.00 72 1009.8
20260504012003 59 288 2.0 6.0 0.00 0.00 0.00 72 1009.8
20260504011803 59 295 2.0 6.0 0.00 0.00 0.00 72 1009.6
20260504011603 59 294 3.0 6.0 0.00 0.00 0.00 72 1009.7
20260504011403 59 297 3.0 7.0 0.00 0.00 0.00 71 1009.7
20260504011224 59 295 3.0 7.0 0.00 0.00 0.00 72 1009.7
20260504011003 60 291 3.0 7.0 0.00 0.00 0.00 71 1009.6
20260504010824 60 291 3.0 7.0 0.00 0.00 0.00 71 1009.6
20260504010603 60 284 2.0 7.0 0.00 0.00 0.00 71 1009.7
20260504010403 60 276 2.0 6.0 0.00 0.00 0.00 72 1009.7
20260504010203 60 279 2.0 6.0 0.00 0.00 0.00 71 1009.7
20260504010003 60 286 2.0 8.0 0.00 0.00 0.00 70 1009.7
20260504005803 60 282 2.0 8.0 0.00 0.00 0.00 70 1009.7
20260504005603 60 292 2.0 8.0 0.00 0.00 0.00 69 1009.6
20260504005403 61 297 3.0 8.0 0.00 0.00 0.00 69 1009.6
20260504005224 61 299 3.0 8.0 0.00 0.00 0.00 68 1009.5
20260504005004 61 306 3.0 8.0 0.00 0.00 0.00 68 1009.4
20260504004803 62 307 3.0 8.0 0.00 0.00 0.00 67 1009.4
20260504004603 62 307 3.0 8.0 0.00 0.00 0.00 67 1009.4
20260504004403 62 311 3.0 7.0 0.00 0.00 0.00 67 1009.5
20260504004203 62 302 3.0 7.0 0.00 0.00 0.00 67 1009.5
20260504004003 62 297 3.0 7.0 0.00 0.00 0.00 67 1009.4
20260504003803 62 293 3.0 7.0 0.00 0.00 0.00 66 1009.3
20260504003603 62 293 3.0 7.0 0.00 0.00 0.00 65 1009.2
20260504003403 62 288 3.0 7.0 0.00 0.00 0.00 65 1009.1
20260504003204 62 294 2.0 8.0 0.00 0.00 0.00 66 1009.2
20260504003024 62 296 2.0 8.0 0.00 0.00 0.00 67 1009.2
20260504002803 62 294 3.0 8.0 0.00 0.00 0.00 66 1009.2
20260504002603 62 295 3.0 8.0 0.00 0.00 0.00 67 1009.1
20260504002424 62 292 3.0 8.0 0.00 0.00 0.00 66 1009.1
20260504002225 62 290 3.0 8.0 0.00 0.00 0.00 65 1009.0
20260504002003 63 293 3.0 8.0 0.00 0.00 0.00 63 1008.9
20260504001803 64 298 3.0 7.0 0.00 0.00 0.00 61 1009.0
20260504001603 64 297 3.0 8.0 0.00 0.00 0.00 55 1009.0
20260504001403 64 299 3.0 8.0 0.00 0.00 0.00 55 1008.9
20260504001203 64 302 3.0 8.0 0.00 0.00 0.00 56 1009.0
20260504001003 64 300 3.0 8.0 0.00 0.00 0.00 56 1009.0
20260504000803 64 301 3.0 8.0 0.00 0.00 0.00 56 1009.0
20260504000603 64 297 3.0 8.0 0.00 0.00 0.00 58 1008.9
20260504000403 64 299 3.0 8.0 0.00 0.00 0.00 57 1008.9
20260504000204 64 296 3.0 7.0 0.00 0.00 0.00 58 1008.9
20260504000024 63 297 3.0 7.0 0.00 0.00 0.00 57 1008.9
20260503235803 63 290 3.0 9.0 0.00 0.00 0.00 57 1009.0
20260503235603 64 294 4.0 11.0 0.00 0.00 0.00 56 1009.1
20260503235403 64 289 4.0 11.0 0.00 0.00 0.00 57 1009.1
20260503235203 64 285 4.0 11.0 0.00 0.00 0.00 57 1009.1
20260503235003 64 281 4.0 11.0 0.00 0.00 0.00 57 1009.2
20260503234803 64 280 3.0 11.0 0.00 0.00 0.00 57 1009.3
20260503234603 64 264 2.0 9.0 0.00 0.00 0.00 57 1009.3
20260503234403 64 254 1.0 9.0 0.00 0.00 0.00 58 1009.3
20260503234203 63 226 1.0 9.0 0.00 0.00 0.00 58 1009.3
20260503234003 63 154 1.0 4.0 0.00 0.00 0.00 58 1009.3
20260503233804 63 158 1.0 4.0 0.00 0.00 0.00 58 1009.3
20260503233603 64 183 1.0 4.0 0.00 0.00 0.00 57 1009.3
20260503233403 64 252 1.0 6.0 0.00 0.00 0.00 56 1009.3
20260503233203 64 275 1.0 6.0 0.00 0.00 0.00 57 1009.3
20260503233003 64 289 2.0 6.0 0.00 0.00 0.00 57 1009.3
20260503232803 64 284 2.0 6.0 0.00 0.00 0.00 58 1009.2
20260503232603 64 286 2.0 6.0 0.00 0.00 0.00 59 1009.3
20260503232404 64 284 2.0 6.0 0.00 0.00 0.00 58 1009.3
20260503232203 64 287 2.0 6.0 0.00 0.00 0.00 58 1009.3
20260503232003 64 287 3.0 7.0 0.00 0.00 0.00 58 1009.3
20260503231803 64 290 3.0 8.0 0.00 0.00 0.00 57 1009.3
20260503231604 64 285 3.0 8.0 0.00 0.00 0.00 57 1009.3
20260503231403 65 285 2.0 8.0 0.00 0.00 0.00 56 1009.3
20260503231224 65 288 2.0 8.0 0.00 0.00 0.00 56 1009.4
20260503231003 65 261 1.0 8.0 0.00 0.00 0.00 56 1009.4
20260503230803 65 229 1.0 6.0 0.00 0.00 0.00 56 1009.4
20260503230603 65 203 2.0 7.0 0.00 0.00 0.00 57 1009.5
20260503230424 64 192 2.0 7.0 0.00 0.00 0.00 58 1009.4
20260503230204 64 193 2.0 7.0 0.00 0.00 0.00 58 1009.4
20260503230003 64 179 2.0 7.0 0.00 0.00 0.00 57 1009.5
20260503225803 64 192 2.0 7.0 0.00 0.00 0.00 57 1009.6
20260503225624 64 224 2.0 7.0 0.00 0.00 0.00 57 1009.6
20260503225424 64 266 2.0 7.0 0.00 0.00 0.00 57 1009.6
20260503225203 64 271 2.0 7.0 0.00 0.00 0.00 58 1009.6
20260503225024 64 277 2.0 7.0 0.00 0.00 0.00 58 1009.6
20260503224803 64 268 2.0 7.0 0.00 0.00 0.00 57 1009.7
20260503224603 64 267 2.0 7.0 0.00 0.00 0.00 57 1009.7
20260503224403 64 252 2.0 7.0 0.00 0.00 0.00 58 1009.7
20260503224203 64 254 2.0 7.0 0.00 0.00 0.00 58 1009.7
20260503224003 64 267 2.0 7.0 0.00 0.00 0.00 58 1009.7
20260503223803 64 275 2.0 7.0 0.00 0.00 0.00 58 1009.7
20260503223603 65 279 2.0 7.0 0.00 0.00 0.00 57 1009.7
20260503223403 65 287 2.0 7.0 0.00 0.00 0.00 58 1009.7
20260503223203 65 294 2.0 6.0 0.00 0.00 0.00 60 1009.7
20260503223003 64 293 2.0 6.0 0.00 0.00 0.00 61 1009.8
20260503222803 64 301 2.0 6.0 0.00 0.00 0.00 60 1009.8
20260503222603 64 296 2.0 7.0 0.00 0.00 0.00 62 1009.7
20260503222403 64 293 2.0 7.0 0.00 0.00 0.00 62 1009.8
20260503222203 63 295 3.0 7.0 0.00 0.00 0.00 63 1009.8
20260503222003 63 295 4.0 7.0 0.00 0.00 0.00 63 1009.8
20260503221803 63 293 4.0 7.0 0.00 0.00 0.00 62 1010.0
20260503221603 63 295 4.0 7.0 0.00 0.00 0.00 63 1009.9
20260503221403 63 288 4.0 7.0 0.00 0.00 0.00 64 1010.0
20260503221224 63 283 4.0 7.0 0.00 0.00 0.00 65 1010.0
20260503221003 62 280 3.0 7.0 0.00 0.00 0.00 66 1009.9
20260503220824 62 284 4.0 7.0 0.00 0.00 0.00 65 1009.9
20260503220603 62 280 4.0 7.0 0.00 0.00 0.00 66 1010.0
20260503220403 62 287 3.0 7.0 0.00 0.00 0.00 66 1010.0
20260503220203 62 290 3.0 7.0 0.00 0.00 0.00 67 1009.9
20260503220003 62 290 2.0 7.0 0.00 0.00 0.00 68 1009.9
20260503215803 62 285 2.0 7.0 0.00 0.00 0.00 67 1010.1
20260503215624 62 284 1.0 7.0 0.00 0.00 0.00 68 1010.1
20260503215403 62 264 1.0 6.0 0.00 0.00 0.00 67 1010.1
20260503215203 62 255 1.0 6.0 0.00 0.00 0.00 67 1010.1
20260503215003 62 253 1.0 6.0 0.00 0.00 0.00 68 1010.2
20260503214803 62 243 1.0 6.0 0.00 0.00 0.00 67 1010.2
20260503214603 62 249 1.0 5.0 0.00 0.00 0.00 68 1010.2
20260503214403 62 275 1.0 6.0 0.00 0.00 0.00 68 1010.2
20260503214203 62 281 2.0 7.0 0.00 0.00 0.00 67 1010.2
20260503214003 63 283 2.0 7.0 0.00 0.00 0.00 66 1010.2
20260503213803 63 286 2.0 7.0 0.00 0.00 0.00 65 1010.2
20260503213603 63 289 2.0 7.0 0.00 0.00 0.00 65 1010.3
20260503213403 64 289 2.0 7.0 0.00 0.00 0.00 67 1010.3
20260503213203 64 294 1.0 6.0 0.00 0.00 0.00 66 1010.2
20260503213003 63 296 1.0 6.0 0.00 0.00 0.00 67 1010.2
20260503212803 63 276 2.0 8.0 0.00 0.00 0.00 69 1010.2
20260503212603 63 264 2.0 8.0 0.00 0.00 0.00 68 1010.2
20260503212403 63 242 2.0 8.0 0.00 0.00 0.00 68 1010.3
20260503212203 63 225 2.0 8.0 0.00 0.00 0.00 65 1010.3
20260503212004 63 232 2.0 8.0 0.00 0.00 0.00 65 1010.2
20260503211803 62 277 2.0 8.0 0.00 0.00 0.00 66 1010.3
20260503211603 62 290 3.0 8.0 0.00 0.00 0.00 64 1010.2
20260503211404 62 301 3.0 8.0 0.00 0.00 0.00 65 1010.1
20260503211203 62 303 3.0 8.0 0.00 0.00 0.00 67 1010.1
20260503211003 61 302 3.0 8.0 0.00 0.00 0.00 69 1010.1
20260503210803 61 301 3.0 8.0 0.00 0.00 0.00 69 1010.1
20260503210603 61 292 2.0 8.0 0.00 0.00 0.00 68 1010.2
20260503210403 62 279 2.0 8.0 0.00 0.00 0.00 67 1010.1
20260503210203 62 280 2.0 8.0 0.00 0.00 0.00 66 1010.1
20260503210003 63 284 2.0 8.0 0.00 0.00 0.00 66 1010.2
20260503205803 63 274 2.0 7.0 0.00 0.00 0.00 67 1010.1
20260503205603 62 281 3.0 7.0 0.00 0.00 0.00 68 1010.1
20260503205403 62 288 3.0 7.0 0.00 0.00 0.00 67 1010.2
20260503205224 62 290 3.0 7.0 0.00 0.00 0.00 65 1010.2
20260503205003 62 288 3.0 9.0 0.00 0.00 0.00 65 1010.2
20260503204803 62 293 3.0 9.0 0.00 0.00 0.00 67 1010.2
20260503204603 62 292 4.0 9.0 0.00 0.00 0.00 67 1010.2
20260503204403 62 289 3.0 9.0 0.00 0.00 0.00 67 1010.2
20260503204203 63 288 3.0 9.0 0.00 0.00 0.00 67 1010.3
20260503204024 63 273 3.0 9.0 0.00 0.00 0.00 66 1010.3
20260503203824 63 252 2.0 9.0 0.00 0.00 0.00 68 1010.2
20260503203624 62 245 2.0 9.0 0.00 0.00 0.00 70 1010.2
20260503203403 61 246 2.0 9.0 0.00 0.00 0.00 70 1010.2
20260503203203 61 251 2.0 9.0 0.00 0.00 0.00 68 1010.2
20260503203003 61 269 2.0 7.0 0.00 0.00 0.00 69 1010.2
20260503202803 61 273 2.0 7.0 0.00 0.00 0.00 69 1010.2
20260503202603 61 277 2.0 8.0 0.00 0.00 0.00 69 1010.2
20260503202403 61 279 2.0 8.0 0.00 0.00 0.00 69 1010.2
20260503202203 61 280 2.0 8.0 0.00 0.00 0.00 72 1010.3
20260503202003 61 272 2.0 8.0 0.00 0.00 0.00 71 1010.3
20260503201803 61 261 2.0 8.0 0.00 0.00 0.00 71 1010.4
20260503201603 60 253 2.0 12.0 0.00 0.00 0.00 72 1010.3
20260503201403 60 249 2.0 12.0 0.00 0.00 0.00 74 1010.3
20260503201224 59 258 2.0 12.0 0.00 0.00 0.00 73 1010.4
20260503201003 59 273 3.0 12.0 0.00 0.00 0.00 73 1010.4
20260503200803 59 287 3.0 12.0 0.00 0.00 0.00 74 1010.5
20260503200624 59 295 3.0 12.0 0.00 0.00 0.00 75 1010.5
20260503200403 59 294 3.0 9.0 0.00 0.00 0.00 75 1010.5
20260503200224 59 294 3.0 9.0 0.00 0.00 0.00 74 1010.5
20260503200003 59 292 3.0 9.0 0.00 0.00 0.00 75 1010.5
20260503195803 59 287 2.0 6.0 0.00 0.00 0.00 75 1010.5
20260503195603 59 283 3.0 10.0 0.00 0.00 0.00 75 1010.5
20260503195424 59 277 2.0 10.0 0.00 0.00 0.00 75 1010.6
20260503195203 59 282 3.0 10.0 0.00 0.00 0.00 75 1010.6
20260503195025 59 278 3.0 10.0 0.00 0.00 0.00 76 1010.6
20260503194803 59 282 2.0 10.0 0.00 0.00 0.00 76 1010.7
20260503194624 59 284 2.0 10.0 0.00 0.00 0.00 75 1010.6
20260503194403 59 262 2.0 9.0 0.00 0.00 0.00 76 1010.7
20260503194203 59 252 2.0 9.0 0.00 0.00 0.00 75 1010.7
20260503194003 59 252 2.0 9.0 0.00 0.00 0.00 74 1010.7
20260503193803 59 242 2.0 9.0 0.00 0.00 0.00 74 1010.8